Weather History for Mt. Clemens, MI

Change the Weather History Date:

Tuesday, August 20, 2013

  Actual Average Record
Temperature  
Mean Temperature 72 °F -  
Max Temperature 86 °F 77 °F 97 °F (1955)
Min Temperature 60 °F 57 °F 43 °F (1977)
Cooling Degree Days 8    
Growing Degree Days 22 (Base 50)    
Moisture  
Dew Point 63 °F    
Average Humidity 71    
Maximum Humidity 97    
Minimum Humidity 46    
Precipitation  
Precipitation 0.00 in - - ()
Sea Level Pressure  
Sea Level Pressure 30.11 in    
Wind  
Wind Speed 6 mph (SSW)    
Max Wind Speed 13 mph    
Max Gust Speed -    
Visibility 10 miles    
Events      
Averages and records for this station are not official NWS values.
T = Trace of Precipitation, MM = Missing Value Source: NWS Daily Summary

Daily Weather History Graph

Daily Weather History Graph

Search for Another Location

Airport:

Trip Planner

Search our weather history database for the weather conditions in past years. The results will help you decide how hot, cold, wet, or windy it might be!

Date:

Astronomy

Aug. 20, 2013 Rise Set
Actual Time 6:43 AM EDT 8:24 PM EDT
Civil Twilight 6:13 AM EDT 8:54 PM EDT
Nautical Twilight 5:37 AM EDT 9:30 PM EDT
Astronomical Twilight 4:58 AM EDT 10:09 PM EDT
Moon 7:54 PM EDT (8/20) 6:12 AM EDT (8/20)
Length of Visible Light 14h 41m
Length of Day
13h 41m
Full, 100% of the Moon is Illuminated
Aug 20
Full
Aug 20
Full
Aug 28
Last Quarter
Sep 5
New
Sep 12
First Quarter

Hourly Weather History & Observations

Time (EDT) Temp. Heat Index Dew Point Humidity Pressure Visibility Wind Dir Wind Speed Gust Speed Precip Events Conditions
12:58 AM 68.0 °F - 62.2 °F 82% 30.06 in 10.0 mi SSW 5.8 mph - N/A   Clear
1:58 AM 68.4 °F - 63.1 °F 83% 30.07 in 10.0 mi West 5.8 mph - N/A   Clear
2:58 AM 67.5 °F - 62.2 °F 83% 30.07 in 10.0 mi West 5.8 mph - N/A   Scattered Clouds
3:58 AM 65.7 °F - 60.8 °F 84% 30.07 in 10.0 mi West 5.8 mph - N/A   Clear
4:58 AM 62.4 °F - 59.5 °F 90% 30.09 in 10.0 mi Calm Calm - N/A   Clear
5:58 AM 61.7 °F - 60.1 °F 94% 30.09 in 10.0 mi Calm Calm - N/A   Clear
6:58 AM 60.4 °F - 59.5 °F 97% 30.11 in 10.0 mi Calm Calm - N/A   Clear
7:55 AM 63.5 °F - 60.3 °F 89% 30.13 in 10.0 mi Calm Calm - N/A   Clear
8:55 AM 72.5 °F - 61.9 °F 69% 30.14 in 10.0 mi West 3.5 mph - N/A   Clear
9:55 AM 77.2 °F - 62.2 °F 60% 30.15 in 10.0 mi WSW 5.8 mph - N/A   Clear
10:55 AM 81.0 °F 82.7 °F 64.8 °F 58% 30.16 in 10.0 mi WSW 6.9 mph - N/A   Clear
11:55 AM 83.3 °F 84.4 °F 63.7 °F 51% 30.15 in 10.0 mi WSW 4.6 mph - N/A   Partly Cloudy
12:55 PM 83.8 °F 84.1 °F 61.2 °F 46% 30.15 in 10.0 mi West 10.4 mph - N/A   Scattered Clouds
1:55 PM 85.8 °F 86.6 °F 62.6 °F 46% 30.13 in 10.0 mi Variable 5.8 mph - N/A   Scattered Clouds
2:55 PM 83.7 °F 85.5 °F 65.7 °F 54% 30.12 in 10.0 mi South 12.7 mph - N/A   Scattered Clouds
3:55 PM 82.8 °F 84.3 °F 64.4 °F 54% 30.11 in 10.0 mi SSE 10.4 mph - N/A   Scattered Clouds
4:55 PM 83.8 °F 85.6 °F 65.3 °F 53% 30.10 in 10.0 mi SSE 9.2 mph - N/A   Partly Cloudy
5:55 PM 82.9 °F 85.6 °F 67.1 °F 59% 30.09 in 10.0 mi SSE 9.2 mph - N/A   Scattered Clouds
6:55 PM 80.4 °F 83.0 °F 67.5 °F 65% 30.09 in 10.0 mi South 9.2 mph - N/A   Partly Cloudy
7:55 PM 76.5 °F - 67.1 °F 73% 30.09 in 10.0 mi South 6.9 mph - N/A   Partly Cloudy
8:58 PM 72.0 °F - 66.2 °F 82% 30.09 in 10.0 mi South 9.2 mph - N/A   Clear
9:58 PM 71.2 °F - 63.1 °F 75% 30.10 in 10.0 mi SSW 6.9 mph - N/A   Clear
10:58 PM 69.8 °F - 62.8 °F 78% 30.11 in 10.0 mi South 5.8 mph - N/A   Clear
11:58 PM 69.4 °F - 63.0 °F 80% 30.11 in 10.0 mi South 5.8 mph - N/A   Clear